Retour au catalogue

CZ-3C DEB

ActifGTO
NORAD 39349·DEBRIS·🇨🇳 China

Lancé Oct 31, 2010 depuis Xichang Satellite Launch Center

Loading…

TLE

VieillissantSource: Space-Track

Époque: Sep 14, 2026, 07:58 UTC

1 39349U 10057P   26257.33248471 -.00000069  00000-0  11380-2 0  9996
2 39349  20.6367 315.5504 7139501  52.6036   1.4080  2.30231173 99828

Suivez CZ-3C DEB en temps réel avec AllMySat

Download on the App Store